This is the latest recevied weather packets stored in our database for station/object KC1BRV. If no packets are shown the sender has not sent any weather packets the latest 10 day(s).
| Time | Temp. | Humidity | Pressure | Rain* | Wind** | Luminosity | Snow |
|---|---|---|---|---|---|---|---|
| 1778096124 | 15° C | 91% | 1009.6 hPa | 0 mm | - | 162 W/m² | - |
| 1778095821 | 15° C | 91% | 1009.7 hPa | 0 mm | - | 188 W/m² | - |
| 1778095517 | 15° C | 90% | 1009.8 hPa | 1.27 mm | - | 109 W/m² | - |
| 1778095213 | 15° C | 89% | 1009.9 hPa | 1.27 mm | - | 59 W/m² | - |
| 1778094910 | 15° C | 88% | 1010 hPa | 0 mm | - | 64 W/m² | - |
| 1778094606 | 15° C | 86% | 1009.7 hPa | 0 mm | - | 51 W/m² | - |
| 1778094303 | 15.56° C | 85% | 1010 hPa | 0 mm | - | 76 W/m² | - |
| 1778094000 | 15.56° C | 84% | 1009.8 hPa | 0 mm | - | 126 W/m² | - |
| 1778093698 | 16.11° C | 83% | 1009.9 hPa | 0 mm | - | 85 W/m² | - |
| 1778093394 | 16.67° C | 80% | 1010 hPa | 0 mm | - | 115 W/m² | - |
| 1778093092 | 16.67° C | 79% | 1010.1 hPa | 0 mm | - | 113 W/m² | - |
| 1778092788 | 16.67° C | 78% | 1010.2 hPa | 0 mm | - | 118 W/m² | - |
| 1778092484 | 16.67° C | 76% | 1010 hPa | 0 mm | - | 128 W/m² | - |
| 1778092181 | 16.67° C | 76% | 1010.3 hPa | 0 mm | - | 139 W/m² | - |
| 1778091878 | 16.67° C | 76% | 1010.5 hPa | 0 mm | - | 119 W/m² | - |
| 1778091576 | 16.67° C | 75% | 1010.1 hPa | 0 mm | - | 105 W/m² | - |
| 1778091274 | 17.22° C | 75% | 1010.3 hPa | 0 mm | - | 101 W/m² | - |
| 1778090970 | 17.22° C | 74% | 1010.7 hPa | 0 mm | - | 112 W/m² | - |
| 1778090666 | 17.22° C | 74% | 1010.5 hPa | 0 mm | - | 151 W/m² | - |
| 1778090363 | 17.22° C | 75% | 1010.5 hPa | 0 mm | - | 199 W/m² | - |
| 1778090060 | 17.78° C | 73% | 1010.4 hPa | 0 mm | - | 187 W/m² | - |
| 1778089757 | 17.78° C | 73% | 1010.6 hPa | 0 mm | - | 221 W/m² | - |
| 1778089454 | 17.78° C | 73% | 1010.7 hPa | 0 mm | - | 219 W/m² | - |
| 1778089152 | 17.78° C | 73% | 1010.8 hPa | 0 mm | - | 184 W/m² | - |
| 1778088848 | 18.33° C | 71% | 1010.8 hPa | 0 mm | - | 178 W/m² | - |
* Rain latest hour (hover to see other rain measurements)
** Current wind speed in m/s (hover to see current wind gust speed)